Location: D�rnast
(49.6426°N, 11.9755°E)
Time: 13:41:06
(UTC+00:00)

Cosmos 2344 - Pass Details

Date: 24 January 2021
Orbit: 1243 x 2999 km, 63.3° (Epoch: 26 February)

Event Time Altitude Azimuth Distance (km) Brightness Sun altitude
Rises 18:01:14 0° 316° (NW) 4,501 7.0 -20.3°
Reaches altitude 10° 18:03:49 10° 317° (NW) 3,651 6.5 -20.7°
Maximum altitude 18:12:57 89° 46° (NE) 1,844 4.3 -22.2°
Drops below altitude 10° 18:25:46 10° 140° (SE) 4,982 6.3 -24.2°
Sets 18:29:56 0° 141° (SE) 6,216 6.8 -24.9°
